Location: Moscow
(55.7500°N, 37.5830°E)
Time: 04:32:32
(UTC+03:00)

Kosmos-337 - Pass Details

Date: 05 July 2022
Orbit: 1467 x 1552 km, 74.0° (Epoch: 13 August)

Event Time Altitude Azimuth Distance (km) Brightness Sun altitude
Rises 21:55:06 0° 314° (NW) 4,731 ? -4.6°
Reaches altitude 10° 21:58:39 10° 325° (NW) 3,750 ? -4.8°
Maximum altitude 22:06:31 30° 24° (NNE) 2,504 ? -5.5°
Drops below altitude 10° 22:14:20 10° 83° (E) 3,728 ? -6.1°
Sets 22:17:50 0° 94° (E) 4,699 ? -6.3°
